China Lake, CA

12:53 AM PDT on September 23, 2017 (GMT -0700)
China Lake NAWS

Weather History for KNID - December, 2013

Change the Weather History Date:

Wednesday, December 11, 2013

  Actual Average Record
Temperature  
Mean Temperature 36 °F -  
Max Temperature 53 °F 56 °F 69 °F (2016)
Min Temperature 19 °F 33 °F 19 °F (2013)
Degree Days  
Heating Degree Days 29    
Moisture  
Dew Point 7 °F    
Average Humidity 37    
Maximum Humidity 57    
Minimum Humidity 16    
Precipitation  
Precipitation 0.00 in - - ()
Sea Level Pressure  
Sea Level Pressure 30.33 in    
Wind  
Wind Speed 3 mph (SW)    
Max Wind Speed 10 mph    
Max Gust Speed -    
Visibility 10 miles    
Events      
Averages and records for this station are not official NWS values.
T = Trace of Precipitation, MM = Missing Value Source: NWS Daily Summary

Daily Weather History Graph

Daily Weather History Graph

Search for Another Location

Airport or City:

Trip Planner

Search our weather history database for the weather conditions in past years. The results will help you decide how hot, cold, wet, or windy it might be!

Date:

Astronomy

Dec. 11, 2013 Rise Set
Actual Time 6:50 AM PST 4:37 PM PST
Civil Twilight 6:22 AM PST 5:06 PM PST
Nautical Twilight 5:50 AM PST 5:38 PM PST
Astronomical Twilight 5:19 AM PST 6:09 PM PST
Moon 1:05 PM PST (12/11) 1:25 AM PST (12/11)
Length of Visible Light 10h 43m
Length of Day
9h 47m
Waxing Gibbous, 72% of the Moon is Illuminated
Dec 11
Waxing Gibbous
Dec 17
Full
Dec 25
Last Quarter
Jan 1
New
Jan 7
First Quarter

Hourly Weather History & Observations

Time (PST) Temp. Windchill Dew Point Humidity Pressure Visibility Wind Dir Wind Speed Gust Speed Precip Events Conditions
12:56 AM 23.0 °F 15.8 °F 6.1 °F 48% 30.30 in 10.0 mi SSW 5.8 mph - N/A   Clear
1:56 AM 24.1 °F - 6.1 °F 46% 30.30 in 10.0 mi Calm Calm - N/A   Clear
2:56 AM 21.9 °F 17.2 °F 7.0 °F 53% 30.30 in 10.0 mi SW 3.5 mph - N/A   Clear
3:56 AM 21.0 °F - 5.0 °F 50% 30.30 in 10.0 mi Calm Calm - N/A   Clear
4:56 AM 19.9 °F 13.4 °F 6.1 °F 55% 30.32 in 10.0 mi SW 4.6 mph - N/A   Clear
5:56 AM 19.0 °F 12.3 °F 6.1 °F 57% 30.34 in 10.0 mi SSW 4.6 mph - N/A   Clear
6:56 AM 19.0 °F - 6.1 °F 57% 30.36 in 10.0 mi Calm Calm - N/A   Clear
7:56 AM 26.1 °F - 8.1 °F 47% 30.38 in 10.0 mi Calm Calm - N/A   Clear
8:56 AM 28.0 °F - 8.1 °F 43% 30.39 in 10.0 mi Calm Calm - N/A   Clear
9:56 AM 35.1 °F 32.2 °F 8.1 °F 33% 30.39 in 10.0 mi West 3.5 mph - N/A   Clear
10:56 AM 42.1 °F - 9.0 °F 26% 30.36 in 10.0 mi Calm Calm - N/A   Clear
11:56 AM 46.9 °F - 9.0 °F 21% 30.32 in 10.0 mi Calm Calm - N/A   Clear
12:56 PM 50.0 °F - 8.1 °F 18% 30.30 in 10.0 mi NNE 3.5 mph - N/A   Clear
1:56 PM 52.0 °F - 7.0 °F 16% 30.29 in 10.0 mi Calm Calm - N/A   Clear
2:56 PM 53.1 °F - 7.0 °F 16% 30.28 in 10.0 mi NNE 3.5 mph - N/A   Clear
3:56 PM 52.0 °F - 6.1 °F 16% 30.29 in 10.0 mi NE 3.5 mph - N/A   Clear
4:56 PM 44.1 °F - 6.1 °F 21% 30.31 in 10.0 mi Calm Calm - N/A   Clear
5:56 PM 37.9 °F 35.5 °F 6.1 °F 27% 30.32 in 10.0 mi SSE 3.5 mph - N/A   Clear
6:56 PM 35.1 °F 27.9 °F 7.0 °F 31% 30.34 in 10.0 mi SW 9.2 mph - N/A   Clear
7:56 PM 35.1 °F 27.4 °F 8.1 °F 33% 30.35 in 10.0 mi SSW 10.4 mph - N/A   Clear
8:56 PM 30.9 °F 23.5 °F 9.0 °F 40% 30.35 in 10.0 mi SSW 8.1 mph - N/A   Clear
9:56 PM 28.9 °F 21.9 °F 9.0 °F 43% 30.35 in 10.0 mi SSW 6.9 mph - N/A   Clear
10:56 PM 30.9 °F 25.2 °F 10.0 °F 42% 30.34 in 10.0 mi SW 5.8 mph - N/A   Clear
11:56 PM 23.0 °F 15.8 °F 6.1 °F 48% 30.35 in 10.0 mi WNW 5.8 mph - N/A   Clear